Waarnemingen

Advertentie
Mijn weer
Volkel, Nederland (6375): temperatuur & dauwpunt: 11.12.2017 01:00:00 - 17.12.2017 01:00:00 (CET)Volkel, Nederland (6375): temperatuur 5cm: 11.12.2017 01:00:00 - 17.12.2017 01:00:00 (CET)Volkel, Nederland (6375): windsnelheid & windstoten: 11.12.2017 01:00:00 - 17.12.2017 01:00:00 (CET)Volkel, Nederland (6375): windrichting: 11.12.2017 01:00:00 - 17.12.2017 01:00:00 (CET)Volkel, Nederland (6375): luchtdruk: 11.12.2017 01:00:00 - 17.12.2017 01:00:00 (CET)Volkel, Nederland (6375): zicht: 11.12.2017 01:00:00 - 17.12.2017 01:00:00 (CET)Volkel, Nederland (6375): neerslag: 11.12.2017 01:00:00 - 17.12.2017 01:00:00 (CET)
Datum & Tijd tt [°C] td [°C] tt 5cm [°C] ff [km/u] ff [kn] fx [km/u] fx [kn] dd ppp [hPa] vv [km] rr [mm]
17.12.2017 01:00:00 1,9 1,3 1,0 15 8 22 12 WZW 1018,3 10 0,0
17.12.2017 00:00:00 1,8 1,3 1,2 13 7 18 10 WZW 1018,1 10 0,0
16.12.2017 23:00:00 2,2 1,7 1,2 13 7 22 12 WZW 1017,6 10 0,0
16.12.2017 22:00:00 1,6 1,4 0,7 13 7 14 8 ZW 1017,1 10 0,1
16.12.2017 21:00:00 2,4 1,7 2,0 11 6 22 12 W 1016,7 6 1,1
16.12.2017 20:00:00 2,3 1,5 1,3 13 7 22 12 WZW 1016,1 10 0,0
16.12.2017 19:00:00 2,6 1,8 1,8 11 6 25 14 WZW 1015,6 10 1,3
16.12.2017 18:00:00 2,9 1,9 2,3 11 6 22 12 W 1014,9 10 0,0
16.12.2017 17:00:00 2,8 1,5 2,3 8 4 29 16 W 1014,4 10 0,5
16.12.2017 16:00:00 2,5 1,8 1,6 8 4 40 21 W 1013,6 10 1,6
16.12.2017 15:00:00 4,3 1,7 3,6 11 6 36 19 W 1012,7 10 0,1
16.12.2017 14:00:00 5,8 2,1 6,2 13 7 29 16 W 1012,4 10 0,0
16.12.2017 13:00:00 5,6 2,0 6,1 11 6 25 14 W 1012,0 10 0,0
16.12.2017 12:00:00 5,4 1,9 5,2 11 6 25 14 W 1011,6 10 0,0
16.12.2017 11:00:00 3,9 1,6 3,3 11 6 22 12 W 1011,3 10 0,0
16.12.2017 10:00:00 2,0 1,0 0,9 8 4 14 8 WZW 1010,5 10 0,0
16.12.2017 09:00:00 1,8 0,7 0,3 9 5 18 10 W 1009,6 10 0,0
16.12.2017 08:00:00 1,7 1,0 0,4 11 6 18 10 W 1008,6 10 0,0
16.12.2017 07:00:00 1,1 0,5 0,1 8 4 14 8 W 1007,8 7 0,0
16.12.2017 06:00:00 1,7 1,3 0,7 8 4 18 10 W 1007,1 5 0,0
16.12.2017 05:00:00 2,2 1,8 1,2 9 5 18 10 W 1006,3 3,5 0,0
16.12.2017 04:00:00 2,7 2,2 1,9 9 5 14 8 W 1005,8 4,4 0,1
16.12.2017 03:00:00 2,6 2,0 1,7 9 5 14 8 W 1005,3 3,3 0,2
16.12.2017 02:00:00 2,0 1,7 0,0 8 4 11 6 W 1004,5 5 0,0
16.12.2017 01:00:00 3,2 2,0 1,4 4 2 7 4 W 1004,0 10 0,0
16.12.2017 00:00:00 3,7 2,3 3,2 4 2 7 4 - 1003,3 10 0,0
15.12.2017 23:00:00 3,2 2,5 2,8 0 0 4 2 N 1002,6 10 0,0
15.12.2017 22:00:00 3,7 2,2 3,1 4 2 7 4 - 1001,9 10 0,0
15.12.2017 21:00:00 3,8 2,1 3,5 5 3 11 6 NO 1001,2 10 0,0
15.12.2017 20:00:00 4,1 1,9 3,5 5 3 7 4 NNW 1000,3 10 0,0
15.12.2017 19:00:00 3,9 2,1 3,4 2 1 7 4 - 999,3 10 0,0
15.12.2017 18:00:00 3,9 2,1 3,3 2 1 7 4 Z 998,5 10 0,0
15.12.2017 17:00:00 4,2 1,9 3,6 5 3 11 6 Z 997,7 10 0,0
15.12.2017 16:00:00 4,3 2,0 3,9 4 2 14 8 - 997,0 10 0,0
15.12.2017 15:00:00 4,5 1,7 4,3 11 6 18 10 ZZW 996,2 10 0,0
15.12.2017 14:00:00 4,3 2,3 4,2 13 7 22 12 ZZW 995,7 10 0,0
15.12.2017 13:00:00 4,1 2,1 4,2 13 7 22 12 ZZW 995,3 10 0,0
15.12.2017 12:00:00 4,1 2,3 4,1 15 8 22 12 ZZW 994,9 10 0,0
15.12.2017 11:00:00 4,0 2,7 3,9 13 7 22 12 ZZW 994,5 10 0,0
15.12.2017 10:00:00 3,4 2,6 3,3 11 6 18 10 Z 993,5 10 0,0
15.12.2017 09:00:00 3,2 2,2 2,9 13 7 22 12 Z 993,1 10 0,0
15.12.2017 08:00:00 2,9 2,0 2,6 15 8 22 12 ZZW 992,6 10 0,0
15.12.2017 07:00:00 2,6 1,7 2,1 16 9 22 12 ZZW 992,1 10 0,0
15.12.2017 06:00:00 2,6 1,6 2,3 18 10 25 14 ZZW 992,1 10 0,0
15.12.2017 05:00:00 1,7 0,9 0,8 13 7 29 16 ZZW 991,7 10 0,0
15.12.2017 04:00:00 2,2 1,3 1,9 16 9 29 16 ZZW 991,5 10 0,0
15.12.2017 03:00:00 1,8 0,9 1,4 15 8 25 14 ZZW 991,0 10 0,0
15.12.2017 02:00:00 2,0 1,2 1,8 15 8 22 12 ZW 990,3 10 0,0
15.12.2017 01:00:00 1,9 1,2 1,6 16 9 25 14 ZW 990,2 10 0,0
15.12.2017 00:00:00 1,6 0,9 1,2 22 12 29 16 ZW 989,9 10 0,0
14.12.2017 23:00:00 0,9 0,2 -0,4 11 6 18 10 ZW 989,7 10 0,0
14.12.2017 22:00:00 1,4 0,7 0,1 11 6 18 10 ZW 989,7 10 0,0
14.12.2017 21:00:00 2,9 1,6 2,1 13 7 22 12 ZZW 989,7 10 0,0
14.12.2017 20:00:00 3,6 1,9 3,3 16 9 29 16 ZZW 990,1 10 0,0
14.12.2017 19:00:00 3,6 1,7 3,2 21 11 29 16 ZZW 990,5 10 0,0
14.12.2017 18:00:00 4,1 1,9 3,7 22 12 32 18 ZZW 990,8 10 0,0
14.12.2017 17:00:00 3,9 1,5 3,0 24 13 43 23 ZZW 991,2 10 0,0
14.12.2017 16:00:00 4,8 2,1 4,3 29 16 43 23 ZW 991,2 10 0,0
14.12.2017 15:00:00 5,1 2,3 5,0 29 16 50 27 ZW 991,5 10 0,0
14.12.2017 14:00:00 5,2 2,4 4,9 34 18 50 27 ZW 991,8 10 0,0
14.12.2017 13:00:00 4,7 2,9 4,4 39 21 54 29 ZW 992,1 6 0,1
14.12.2017 12:00:00 5,6 2,8 5,5 35 19 54 29 ZW 992,2 10 0,2
14.12.2017 11:00:00 3,7 1,9 2,4 24 13 40 21 WZW 992,7 10 1,4
14.12.2017 10:00:00 4,1 2,8 3,7 21 11 36 19 WZW 992,0 7 0,4
14.12.2017 09:00:00 3,0 2,1 2,6 24 13 50 27 WZW 992,1 9 0,3
14.12.2017 08:00:00 3,6 1,3 2,8 29 16 40 21 ZW 992,0 10 0,0
14.12.2017 07:00:00 4,0 2,0 3,4 24 13 47 25 WZW 991,2 10 0,0
14.12.2017 06:00:00 3,8 2,2 3,2 28 15 50 27 WZW 989,2 10 0,1
14.12.2017 05:00:00 2,1 1,6 1,5 24 13 40 21 ZW 988,3 6 1,2
14.12.2017 04:00:00 2,3 1,2 2,1 34 18 43 23 ZW 988,2 4,8 1,0
14.12.2017 03:00:00 4,3 2,1 3,9 22 12 29 16 ZW 988,1 10 0,0
14.12.2017 02:00:00 4,0 2,4 3,3 22 12 32 18 ZW 988,5 10 0,0
14.12.2017 01:00:00 4,2 2,2 3,6 21 11 32 18 WZW 988,9 10 0,0
14.12.2017 00:00:00 5,4 2,8 4,4 24 13 47 25 W 988,8 10 0,0
13.12.2017 23:00:00 6,1 3,7 5,3 26 14 47 25 W 987,8 10 0,0
13.12.2017 22:00:00 7,0 5,0 6,2 22 12 54 29 WZW 986,5 10 1,0
13.12.2017 21:00:00 6,6 6,0 5,9 24 13 54 29 Z 986,8 9 1,8
13.12.2017 20:00:00 5,9 5,4 5,3 26 14 40 21 Z 989,2 9 1,8
13.12.2017 19:00:00 5,5 4,9 4,7 26 14 43 23 Z 991,1 10 0,9
13.12.2017 18:00:00 5,0 4,4 4,3 24 13 40 21 Z 993,3 6 0,1
13.12.2017 17:00:00 5,1 4,4 4,2 22 12 36 19 Z 995,1 10 0,3
13.12.2017 16:00:00 5,4 4,4 4,1 24 13 36 19 ZZW 996,4 10 0,1
13.12.2017 15:00:00 4,8 4,0 3,7 31 17 58 31 ZW 997,0 10 0,3
13.12.2017 14:00:00 4,6 3,8 - 34 18 54 29 ZZW 997,0 10 0,2
13.12.2017 13:00:00 4,0 3,1 - 35 19 50 27 ZZW 997,8 3,5 0,0
13.12.2017 12:00:00 3,7 2,5 2,2 34 18 54 29 ZZW 999,2 8 0,2
13.12.2017 11:00:00 3,7 2,4 2,1 34 18 50 27 ZZW 1000,8 5 0,3
13.12.2017 10:00:00 3,6 2,3 2,0 31 17 54 29 Z 1002,1 10 0,2
13.12.2017 09:00:00 3,8 1,8 1,8 26 14 43 23 Z 1003,3 10 0,8
13.12.2017 08:00:00 3,5 1,3 1,4 24 13 40 21 Z 1004,7 10 0,0
13.12.2017 07:00:00 3,2 0,8 1,2 24 13 43 23 Z 1006,0 10 0,0
13.12.2017 06:00:00 2,5 0,5 0,8 24 13 36 19 Z 1007,1 10 0,0
13.12.2017 05:00:00 2,0 0,1 0,5 21 11 32 18 Z 1008,5 10 0,0
13.12.2017 04:00:00 1,5 -0,3 -0,1 21 11 32 18 Z 1009,7 10 0,0
13.12.2017 03:00:00 1,2 -0,2 -0,2 18 10 32 18 Z 1010,8 10 0,0
13.12.2017 02:00:00 1,2 -0,2 -0,4 22 12 32 18 Z 1011,4 10 0,0
13.12.2017 01:00:00 0,7 -0,4 -0,7 16 9 25 14 Z 1012,1 10 0,0
13.12.2017 00:00:00 0,7 -0,3 -0,8 13 7 22 12 Z 1012,8 9 0,0
12.12.2017 23:00:00 0,5 -0,2 -0,6 15 8 22 12 ZZW 1013,2 6 0,0
12.12.2017 22:00:00 1,0 0,2 -0,2 15 8 22 12 Z 1013,1 6 0,0
12.12.2017 21:00:00 1,7 0,8 0,6 15 8 22 12 ZZW 1013,0 6 0,0
12.12.2017 20:00:00 1,7 0,8 0,5 15 8 29 16 ZZW 1013,0 5 0,0
12.12.2017 19:00:00 1,6 0,7 0,5 21 11 22 12 ZW 1012,7 4,6 0,0
12.12.2017 18:00:00 1,2 0,4 0,4 11 6 29 16 WZW 1011,8 5 0,0
12.12.2017 17:00:00 1,4 0,5 0,3 21 11 32 18 WZW 1011,5 5 0,0
12.12.2017 16:00:00 1,4 0,6 0,4 22 12 29 16 ZW 1010,5 9 0,0
12.12.2017 15:00:00 1,5 0,7 0,4 26 14 36 19 ZW 1009,1 5 0,0
12.12.2017 14:00:00 1,7 0,7 0,4 22 12 32 18 ZW 1008,4 9 0,0
12.12.2017 13:00:00 2,0 0,7 0,4 21 11 29 16 WZW 1007,6 10 0,0
12.12.2017 12:00:00 1,3 0,3 0,2 21 11 32 18 ZW 1006,9 10 0,0
12.12.2017 11:00:00 1,2 0,5 0,1 21 11 25 14 ZW 1006,0 10 0,0
12.12.2017 10:00:00 1,4 0,6 0,1 16 9 29 16 WZW 1004,8 10 0,0
12.12.2017 09:00:00 1,3 0,5 0,0 22 12 32 18 WZW 1003,3 10 0,0
12.12.2017 08:00:00 0,7 0,1 0,0 21 11 32 18 WZW 1001,7 10 0,1
12.12.2017 07:00:00 1,4 0,4 0,0 21 11 32 18 WZW 1000,0 10 0,0
12.12.2017 06:00:00 1,6 0,2 0,0 18 10 29 16 W 998,5 10 0,0
12.12.2017 05:00:00 1,6 0,1 0,0 16 9 29 16 WZW 996,6 10 0,0
12.12.2017 04:00:00 1,4 0,1 0,0 13 7 25 14 W 994,4 10 0,0
12.12.2017 03:00:00 1,3 0,4 0,0 15 8 29 16 WNW 992,5 10 0,0
12.12.2017 02:00:00 1,1 0,1 0,0 13 7 25 14 WNW 990,5 10 0,0
12.12.2017 01:00:00 0,7 0,2 -0,1 15 8 25 14 NW 988,1 10 0,5
12.12.2017 00:00:00 0,5 0,3 -0,1 13 7 25 14 NW 986,0 8 0,3
11.12.2017 23:00:00 0,3 0,2 -0,1 13 7 22 12 NNW 983,9 5 0,1
11.12.2017 22:00:00 0,0 -0,1 -0,1 15 8 25 14 N 982,4 2,8 0,9
11.12.2017 21:00:00 -0,1 -0,5 -0,1 18 10 32 18 N 980,9 2,6 0,4
11.12.2017 20:00:00 0,1 -0,3 -0,1 16 9 29 16 N 979,4 3,7 1,0
11.12.2017 19:00:00 0,2 -0,3 -0,1 13 7 25 14 N 978,1 3,5 1,2
11.12.2017 18:00:00 0,4 0,0 -0,1 16 9 25 14 NO 977,2 5 0,3
11.12.2017 17:00:00 0,6 0,0 -0,1 22 12 29 16 NO 977,3 8 0,8
11.12.2017 16:00:00 0,5 0,1 -0,1 28 15 40 21 ONO 976,9 7 1,2
11.12.2017 15:00:00 0,5 0,1 -0,1 34 18 50 27 ONO 977,2 9 2,9
11.12.2017 14:00:00 0,4 -0,1 -0,2 34 18 47 25 O 976,8 10 0,4
11.12.2017 13:00:00 -0,3 -0,4 -0,3 26 14 36 19 NO 979,2 1,3 0,9
11.12.2017 12:00:00 -0,3 -0,8 -0,5 18 10 36 19 NO 981,2 0,5 0,2
11.12.2017 11:00:00 0,0 -1,3 -0,4 26 14 47 25 ONO 982,6 2,6 0,0
11.12.2017 10:00:00 0,4 -2,2 -0,1 29 16 43 23 O 982,7 10 0,0
11.12.2017 09:00:00 0,5 -2,3 -0,1 26 14 40 21 O 983,3 10 0,0
11.12.2017 08:00:00 0,2 -2,0 -0,3 22 12 29 16 O 982,9 10 0,0
11.12.2017 07:00:00 -0,2 -1,8 -1,0 15 8 22 12 O 982,7 10 0,0
11.12.2017 06:00:00 -1,9 -2,9 -3,0 8 4 14 8 O 984,1 10 0,0
11.12.2017 05:00:00 -1,4 -2,1 -3,5 8 4 7 4 O 984,8 8 0,0
11.12.2017 04:00:00 -1,4 -1,6 -3,6 4 2 11 6 - 985,5 10 0,0
11.12.2017 03:00:00 0,6 -1,5 -0,8 8 4 14 8 N 983,8 10 0,0
11.12.2017 02:00:00 0,3 -0,7 -0,4 8 4 11 6 WZW 984,2 10 0,0
11.12.2017 01:00:00 1,3 -0,6 0,4 8 4 22 12 W 982,7 10 0,0

tt = temperatuur
td = dauwpunt
tt 5cm = temperatuur 5cm
ff = windsnelheid
fx = windstoten
dd = windrichting
ppp = luchtdruk
vv = zicht
rr = neerslag

Weerstations in de omgeving